Location: Cogollal
(10.0582°N, 67.8466°W)
Time: 02:08:38
(UTC+00:00)

Cosmos 1603 - Pass Details

Date: 14 April 2024
Orbit: 829 x 860 km, 71.0° (Epoch: 19 May)

Event Time Altitude Azimuth Distance (km) Brightness Sun altitude
Exits shadow 08:54:03 - 185° (S) 2,836 6.2 -21.8°
Reaches altitude 10° 08:55:08 10° 183° (S) 2,427 5.9 -21.6°
Maximum altitude 09:00:36 59° 105° (ESE) 953 4.2 -20.3°
Drops below altitude 10° 09:06:02 10° 26° (NNE) 2,427 6.6 -19.0°
Sets 09:08:30 0° 23° (NNE) 3,363 7.4 -18.4°
